Location: Algishofen
(48.9167°N, 9.9000°E)
Time: 15:14:34
(UTC+00:00)

Daily predictions for brighter satellites

Satellite Brightness Start Highest point End
(mag) Time Altitude Azimuth Time Altitude Azimuth Time Altitude Azimuth
Cosmos 1455 2.7 18:37:43 10° SSE 18:40:56 32° E 18:44:10 10° NNE
CZ-4B R/B 3.6 18:39:10 10° S 18:42:49 50° W 18:46:21 10° NNW
Cosmos 1953 2.3 18:40:45 10° S 18:44:27 52° E 18:48:11 10° NNE
SJ 16-02 1.6 18:40:32 10° NNW 18:44:47 50° ENE 18:48:59 10° SE
SPOT 1/Viking Rocket 3.6 18:39:37 10° SSE 18:44:49 83° ENE 18:50:05 10° NNW
CZ-4B R/B 3.3 18:39:32 10° SSE 18:45:10 76° ENE 18:50:47 10° NNW
DELTA 2 DEB (DPAF) 4.4 18:41:12 10° NNE 18:45:14 41° E 18:49:14 10° S
NOSS 2-3 (C) 3.2 18:42:18 10° SSW 18:45:54 62° SE 18:50:00 10° NE
Cosmos 2366 rocket 4.1 18:41:18 10° N 18:47:36 61° ENE 18:53:52 10° SSE
NOSS 2-3 (D) 3.2 18:47:26 10° SSW 18:51:04 65° SE 18:55:08 10° NE
ATLAS 3B R/B 3.9 18:47:22 10° SSE 18:52:05 19° ESE 18:56:59 10° ENE
Cosmos 2098 Rocket 4.2 18:48:18 10° SSE 18:52:43 28° E 18:56:29 10° NNE
Cosmos 2218 Rocket 4.1 18:48:07 10° N 18:54:31 66° ENE 19:00:51 10° SSE
CZ-4C R/B 4.4 18:55:48 10° NE 18:58:25 20° E 19:00:59 10° SE
Terra 3.7 18:56:24 10° E 18:59:03 15° ENE 19:01:43 10° NNE
USA 281 3.3 18:53:21 10° SE 18:59:51 67° ENE 19:06:23 10° NNW
USA 129 2.7 18:57:54 10° NNE 19:00:26 32° E 19:02:34 10° SSE
NOSS 2-2 (E) 2.9 18:57:58 10° SW 19:01:10 76° NW 19:04:22 10° NE
Okean-O 3.3 18:58:58 10° SE 19:03:02 38° ENE 19:07:08 10° N
Cosmos 1821 Rocket 4.3 18:57:19 10° N 19:03:17 46° ENE 19:09:09 10° SSE
Cosmos 1959 Rocket 4.4 18:59:24 10° N 19:05:32 74° E 19:11:41 10° SSE
Cosmos 1825 2.8 19:10:03 10° NNW 19:13:25 51° W 19:16:46 10° S
Cosmos 2344 3.9 19:06:36 10° SW 19:14:02 69° NW 19:21:35 10° NE
PSLV R/B 3.7 19:11:04 10° SSE 19:14:44 82° WSW 19:18:30 10° NNW
NOSS 2-2 (D) 2.8 19:12:07 10° SW 19:15:21 81° NW 19:18:32 10° NE
NOSS 2-3 (E) 3.6 19:14:00 10° SW 19:17:40 67° NW 19:21:53 10° NE
Cosmos 1025 Rocket 3.5 19:16:53 10° NNW 19:21:13 63° W 19:25:31 10° S
Cosmos 1656 Rocket 4.1 19:18:55 10° SW 19:24:25 66° WNW 19:29:53 10° NNE
Okean O Rocket 1.9 19:21:34 10° S 19:25:53 70° WSW 19:30:15 10° NNW
Cosmos 1302 Rocket 4.0 19:23:52 10° SSW 19:29:08 89° WNW 19:34:26 10° NNE
Resurs 01 Rocket 2.1 19:26:43 10° S 19:31:05 62° W 19:35:29 10° NNW
Cosmos 1975 Rocket 3.0 19:27:54 10° N 19:32:16 88° W 19:36:35 10° S
USA 267 3.9 19:27:32 10° ENE 19:33:56 58° NNW 19:40:19 10° W
CARTOSAT-1 4.0 19:31:43 10° S 19:35:56 61° WSW 19:40:11 10° NNW
Landsat 4 4.2 19:37:44 26° ESE 19:39:06 37° ENE 19:42:23 10° N
Cosmos 2227 Rocket 4.2 19:36:28 10° N 19:40:07 17° NE 19:43:44 10° ENE
Meteor 1-11 4.2 19:36:23 10° N 19:42:04 85° ENE 19:47:19 12° SSE
ATLAS 5 CENTAUR R/B 1.6 19:40:13 10° S 19:43:16 31° ESE 19:46:34 10° ENE
CZ-4C R/B 4.1 19:38:26 10° NW 19:43:59 29° NNE 19:50:37 10° E
Cosmos 1346 Rocket 3.9 19:41:02 10° SSW 19:44:41 44° WNW 19:48:22 10° N
Cosmos 1934 Rocket 4.3 19:44:00 10° N 19:49:53 46° ENE 19:53:19 24° SE
Cosmos 1782 Rocket 4.4 19:45:45 10° SSW 19:50:01 52° WNW 19:54:20 10° N
BREEZE-M R/B 1.7 19:48:48 10° W 19:51:19 73° N 19:51:51 48° ENE
SPOT 5 3.1 19:48:09 20° SSE 19:51:50 70° ENE 19:57:08 10° N
NOSS 3-1 (A) 3.6 19:51:45 10° S 19:56:10 34° ESE 20:01:17 10° NE
Cosmos 1536 Rocket 3.8 19:53:46 10° N 19:58:03 49° ENE 19:59:38 33° SE
ERS-1 Rocket 3.2 19:56:33 28° SE 19:58:59 54° ENE 20:03:53 10° N
MOS 1 4.4 19:54:38 15° SSE 19:59:25 81° WSW 20:05:11 10° NNW
Cosmos 2151 Rocket 3.8 19:59:50 32° SE 20:01:26 47° E 20:05:41 10° NNE
SL-27 R/B 2.0 19:59:25 10° NNW 20:02:21 74° WSW 20:02:50 55° S
CZ-4 R/B 4.3 20:02:16 10° WSW 20:03:53 12° W 20:05:31 10° WNW
COSMOS 2455 4.0 19:59:42 10° NNW 20:05:03 32° NE 20:08:24 19° E
Cosmos 1777 Rocket 4.4 20:02:57 10° NNW 20:08:05 49° ENE 20:10:07 32° ESE
SL-4 R/B 2.1 20:04:37 10° W 20:08:11 56° N 20:09:47 28° ENE
Cosmos 2297 Rocket 3.1 20:04:51 10° NNW 20:10:03 36° NE 20:12:23 25° E
CENTAUR R/B 4.4 20:05:03 10° NW 20:11:41 32° NNE 20:19:22 10° E
Cosmos 2369 Rocket 3.7 20:09:58 10° WSW 20:15:16 39° NW 20:20:34 10° NNE
IRS-1C Rocket 4.2 20:12:54 23° S 20:16:16 74° WSW 20:21:35 10° NNW
Cosmos 1354 Rocket 4.3 20:12:49 10° NNW 20:18:04 55° ENE 20:19:53 37° ESE
NOSS 3-1 (C) 3.0 20:13:19 10° SW 20:18:18 88° NW 20:24:23 10° NE
Cosmos 1503 Rocket 4.0 20:13:07 10° NNW 20:18:31 71° ENE 20:20:33 38° SE
Cosmos 546 4.4 20:15:07 10° WSW 20:18:52 84° SSE 20:19:44 51° E
SJ 16-02 3.7 20:19:43 10° NW 20:22:46 19° W 20:25:48 10° SW
Cosmos 371 Rocket 3.2 20:18:00 10° NNW 20:22:48 69° ENE 20:24:08 46° SE
MetOp-B 4.4 20:19:37 22° S 20:23:04 65° WSW 20:28:25 10° NNW
Cosmos 1992 Rocket 4.4 20:18:59 10° SW 20:24:09 63° WNW 20:29:22 10° NNE
Okean 2 Rocket 3.0 20:23:04 38° S 20:24:45 76° E 20:29:16 10° NNE
Spot 2 Rocket 3.4 20:26:59 42° SSE 20:28:42 76° ENE 20:33:46 10° NNW
Cosmos 1892 Rocket 4.4 20:27:48 10° N 20:31:41 33° ENE 20:31:41 33° ENE
Cosmos 1241 Rocket 4.5 20:27:03 10° NW 20:33:20 78° WSW 20:35:55 38° SSE
Terra 1.7 20:34:37 47° S 20:36:00 87° WSW 20:40:46 10° NNW
Genesis I 3.6 20:34:11 10° NNW 20:37:37 45° NE 20:37:37 45° NE
Iridium 2 3.9 20:34:47 10° N 20:37:09 49° NNW 20:37:09 49° NNW
Sich 1 Rocket 3.6 20:38:15 38° SSW 20:39:54 76° W 20:44:22 10° N
Cosmos 304 Rocket 3.6 20:35:13 10° NNW 20:40:01 80° ENE 20:40:52 60° SE
ATLAS 3B R/B 2.7 20:34:33 10° SSW 20:41:38 79° SE 20:49:15 10° NE
Nadezhda 3 Rocket 4.5 20:37:25 10° SSW 20:43:28 59° WNW 20:49:35 10° N
Cosmos 1656 3.9 20:44:12 45° ESE 20:44:12 45° ESE 20:49:19 10° NE
Cosmos 2263 Rocket 4.1 20:40:53 10° N 20:44:50 19° NE 20:47:19 15° ENE
MOS 1 Rocket 3.1 20:45:24 58° ENE 20:45:29 58° ENE 20:49:43 10° N
Ariane Rocket 3.0 20:46:40 46° S 20:48:09 75° WSW 20:53:13 10° NNW
Cosmos 1437 Rocket 3.9 20:46:35 10° N 20:49:28 33° NE 20:49:28 33° NE
Cosmos 332 Rocket 4.0 20:48:42 10° NNW 20:53:27 52° ENE 20:53:48 51° ENE
SPOT 3 Rocket 3.6 20:52:04 49° S 20:53:29 76° WSW 20:58:43 10° NNW
Cosmos 1605 Rocket 3.9 20:48:24 10° N 20:54:52 81° E 20:56:50 47° SSE
Cosmos 405 Rocket 4.5 21:03:02 23° NE 21:03:02 23° NE 21:04:40 10° NNE
Okean 1 Rocket 3.2 21:01:22 65° SW 21:01:53 74° W 21:06:22 10° N
Cosmos 1455 Rocket 3.8 21:07:54 42° NE 21:07:54 42° NE 21:11:08 10° NNE
Cosmos 990 Rocket 4.0 21:05:40 10° NNW 21:10:50 63° ENE 21:11:05 62° E
Iridium 4 Rocket 4.2 21:10:59 32° SW 21:13:16 54° W 21:18:54 10° N
USA 267 4.2 21:10:13 10° ENE 21:16:21 44° N 21:22:28 10° WNW
MetOp-A 3.9 21:17:03 54° NW 21:17:03 54° NW 21:20:10 10° NNW
ATLAS CENTAUR R/B 3.0 21:14:12 10° NNW 21:16:59 23° NNE 21:16:59 23° NNE
Landsat 5 3.9 21:20:34 10° N 21:24:39 61° WNW 21:24:39 61° WNW
Cosmos 2227 Rocket 2.2 21:19:39 10° NNW 21:25:20 64° ENE 21:25:45 62° E
Cosmos 1727 Rocket 3.9 21:25:28 63° ESE 21:25:57 65° E 21:32:10 10° NNE
ATLAS 5 CENTAUR R/B 2.9 21:23:58 10° W 21:27:08 31° NW 21:30:42 10° NNE
Cosmos 2100 Rocket 4.1 21:21:27 10° N 21:27:45 58° ENE 21:28:21 56° E
Cosmos 1980 Rocket 4.1 21:34:09 17° ENE 21:34:09 17° ENE 21:35:50 10° NE
CZ-4C R/B 3.0 21:26:42 10° NW 21:33:36 69° NE 21:36:02 47° ESE
USA 81 4.0 21:35:33 76° NE 21:35:33 76° NE 21:40:32 10° N
Cosmos 2058 4.0 21:31:53 10° N 21:34:36 41° N 21:34:36 41° N
Cosmos 540 Rocket 4.4 21:40:01 37° NE 21:40:01 37° NE 21:43:20 10° NNE
Cosmos 1697 Rocket 3.4 21:43:51 42° ENE 21:43:51 42° ENE 21:47:52 10° NE
Cosmos 1000 Rocket 4.5 21:46:26 64° E 21:46:26 64° E 21:52:21 10° NNE
NOSS 3-1 (A) 3.9 21:41:39 10° WSW 21:46:40 51° NW 21:52:47 10° NE
SL-4 R/B 4.3 21:43:46 10° WNW 21:44:39 17° WNW 21:44:39 17° WNW
H-2A R/B 4.0 21:51:13 29° N 21:51:13 29° N 21:53:12 10° N
Meteor 2-15 4.5 21:45:22 10° N 21:51:29 64° ENE 21:51:32 64° E
COSMOS 2455 2.8 21:45:29 10° NW 21:51:30 70° WSW 21:51:32 70° WSW
Cosmos 2297 Rocket 2.7 21:48:51 10° NW 21:54:11 47° WSW 21:54:11 47° WSW
USA 229 DEB 3.3 21:54:04 80° S 21:54:20 83° SE 22:01:11 10° NE
USA 229 3.3 21:54:12 81° SSE 21:54:26 82° SE 22:01:17 10° NE
Cosmos 1937 Rocket 4.0 21:50:14 10° NNW 21:55:02 54° NE 21:55:02 54° NE
Cosmos 1898 Rocket 3.7 21:54:51 10° NNW 21:59:29 67° N 21:59:29 67° N
Meteor 2-3 Rocket 3.9 21:54:39 10° N 21:59:55 65° NE 21:59:55 65° NE
Cosmos 2219 3.3 21:55:52 10° NNW 22:01:16 68° NE 22:01:16 68° NE
ARIANE 5 R/B 3.5 22:04:41 48° NNW 22:04:41 48° NNW 22:08:00 10° NNW
CENTAUR R/B 3.4 21:55:54 10° NW 22:03:53 66° NE 22:06:56 44° ESE
Cosmos 1725 Rocket 4.0 22:06:26 10° N 22:12:27 71° ENE 22:12:27 71° ENE
Terra 4.3 22:13:19 11° W 22:14:19 12° W 22:16:01 10° WNW
Cosmos 2233 Rocket 4.3 22:13:18 10° N 22:19:06 55° ENE 22:19:06 55° ENE
Cosmos 2082 3.9 22:17:56 10° NNW 22:23:03 64° NNE 22:23:03 64° NNE
Cosmos 1459 Rocket 4.1 22:19:44 10° NNW 22:25:35 63° W 22:25:35 63° W
ALOS 2 4.0 22:29:29 36° N 22:29:29 36° N 22:32:12 10° N
Cosmos 2263 Rocket 2.4 22:24:05 10° NNW 22:28:59 65° N 22:28:59 65° N
ATLAS 3B R/B 4.1 22:26:20 10° W 22:33:07 39° NNW 22:40:17 10° NE
Cosmos 1802 Rocket 4.4 22:45:17 10° NNW 22:51:08 53° W 22:51:08 53° W
SL-16 R/B 4.1 22:53:27 19° ENE 22:53:27 19° ENE 22:55:49 10° NE
ATLAS CENTAUR R/B 4.1 22:51:38 10° NW 22:52:06 13° NW 22:52:06 13° NW
USA 267 3.7 22:55:32 30° E 22:58:46 59° NNE 23:05:11 10° NW
H-2A R/B 4.0 23:02:58 10° NNE 23:04:46 25° NNE 23:04:46 25° NNE
Cosmos 2227 Rocket 3.9 23:04:28 10° NW 23:07:33 22° W 23:07:33 22° W
NOSS 3-2 (A) 3.9 23:06:43 10° NW 23:14:07 84° SW 23:14:40 78° S
Cosmos 1980 Rocket 2.6 23:15:52 58° NNW 23:15:52 58° NNW 23:20:42 10° NNE
Cosmos 1844 Rocket 3.5 23:11:01 10° NNW 23:16:23 43° NE 23:16:26 43° NE
CZ-4C R/B 3.7 23:15:20 10° NW 23:21:07 39° WSW 23:21:07 39° WSW
Cosmos 841 Rocket 4.4 23:23:47 42° NNW 23:23:47 42° NNW 23:27:54 10° NNE
Cosmos 1697 Rocket 4.0 23:25:31 30° WNW 23:26:36 32° NW 23:31:40 10° NNE
USA 238 DEB 4.4 23:27:40 10° NW 23:34:44 56° NE 23:38:30 30° ESE
USA 238 4.4 23:27:46 10° NW 23:34:50 56° NE 23:38:43 29° ESE
Cosmos 2369 4.2 23:36:22 56° NNW 23:36:22 56° NNW 23:41:21 10° NNE
